 day,  time,  air_temp(C),  RH(%),  ground_temp10cm(C),  ground_temp20cm(C),  ground_temp40cm(C),  precipitation(mm/h),  Solar_Radiation(MJ/m2h),  lack, 
 03/12/01, 01:00,   4.7,  99,   7.9,   8.3,   8.3,   0.0,  0.00, 
 03/12/01, 02:00,   4.4,  99,   7.8,   8.2,   8.3,   0.0,  0.00, 
 03/12/01, 03:00,   4.4,  99,   7.7,   8.2,   8.4,   0.0,  0.00, 
 03/12/01, 04:00,   4.1,  99,   7.7,   8.2,   8.4,   0.0,  0.00, 
 03/12/01, 05:00,   4.1,  99,   7.6,   8.2,   8.4,   0.5,  0.00, 
 03/12/01, 06:00,   3.6,  99,   7.5,   8.1,   8.4,   0.0,  0.00, 
 03/12/01, 07:00,   3.5,  99,   7.5,   8.1,   8.4,   0.0,  0.00, 
 03/12/01, 08:00,   3.5,  99,   7.4,   8.1,   8.4,   0.0,  0.00, 
 03/12/01, 09:00,   3.8,  99,   7.3,   7.9,   8.3,   0.0,  0.12, 
 03/12/01, 10:00,   3.7,  99,   7.3,   8.0,   8.4,   0.0,  0.18, 
 03/12/01, 11:00,   4.1,  99,   7.3,   7.9,   8.3,   0.0,  0.32, 
 03/12/01, 12:00,   4.3,  99,   7.3,   7.9,   8.4,   0.0,  0.26, 
 03/12/01, 13:00,   4.1,  99,   7.4,   7.9,   8.4,   0.0,  0.23, 
 03/12/01, 14:00,   3.9,  99,   7.4,   7.9,   8.4,   0.0,  0.17, 
 03/12/01, 15:00,   4.1,  99,   7.4,   7.9,   8.4,   0.0,  0.12, 
 03/12/01, 16:00,   4.0,  99,   7.4,   7.9,   8.4,   0.0,  0.02, 
 03/12/01, 17:00,   3.9,  99,   7.4,   7.9,   8.4,   0.0,  0.00, 
 03/12/01, 18:00,   3.8,  99,   7.3,   7.8,   8.4,   0.0,  0.00, 
 03/12/01, 19:00,   3.7,  99,   7.3,   7.7,   8.3,   0.0,  0.00, 
 03/12/01, 20:00,   3.6,  99,   7.2,   7.7,   8.3,   0.0,  0.00, 
 03/12/01, 21:00,   3.5,  99,   7.2,   7.8,   8.4,   0.0,  0.00, 
 03/12/01, 22:00,   3.3,  99,   7.2,   7.7,   8.3,   0.0,  0.00, 
 03/12/01, 23:00,   3.3,  99,   7.1,   7.7,   8.3,   0.5,  0.00, 
 03/12/02, 00:00,   3.1,  99,   7.0,   7.6,   8.3,   0.0,  0.00, 
 03/12/02, 01:00,   3.1,  99,   6.9,   7.6,   8.3,   0.0,  0.00, 
 03/12/02, 02:00,   3.0,  99,   6.9,   7.6,   8.3,   0.0,  0.00, 
 03/12/02, 03:00,   2.9,  99,   6.8,   7.5,   8.3,   0.0,  0.00, 
 03/12/02, 04:00,   2.8,  99,   6.8,   7.5,   8.3,   0.0,  0.00, 
 03/12/02, 05:00,   2.4,  99,   6.7,   7.5,   8.3,   0.0,  0.00, 
 03/12/02, 06:00,   2.1,  99,   6.6,   7.5,   8.4,   0.0,  0.00, 
 03/12/02, 07:00,   2.0,  96,   6.6,   7.4,   8.3,   0.0,  0.00, 
 03/12/02, 08:00,   2.1,  95,   6.5,   7.4,   8.3,   0.0,  0.12, 
 03/12/02, 09:00,   2.4,  96,   6.4,   7.4,   8.3,   0.0,  0.23, 
 03/12/02, 10:00,   3.0,  93,   6.4,   7.3,   8.2,   0.0,  0.37, 
 03/12/02, 11:00,   3.4,  89,   6.5,   7.3,   8.2,   0.0,  0.50, 
 03/12/02, 12:00,   3.7,  94,   6.6,   7.3,   8.3,   0.0,  0.53, 
 03/12/02, 13:00,   3.6,  97,   6.6,   7.2,   8.3,   0.0,  0.41, 
 03/12/02, 14:00,   3.8,  96,   6.7,   7.2,   8.2,   0.0,  0.48, 
 03/12/02, 15:00,   3.2,  96,   6.8,   7.2,   8.3,   0.0,  0.27, 
 03/12/02, 16:00,   3.0,  88,   6.8,   7.2,   8.3,   0.0,  0.14, 
 03/12/02, 17:00,   2.3,  91,   6.8,   7.2,   8.3,   0.0,  0.01, 
 03/12/02, 18:00,   2.0,  88,   6.7,   7.2,   8.2,   0.0,  0.00, 
 03/12/02, 19:00,   1.8,  93,   6.6,   7.2,   8.3,   0.0,  0.00, 
 03/12/02, 20:00,   1.0,  96,   6.4,   7.2,   8.3,   0.0,  0.00, 
 03/12/02, 21:00,   0.7,  91,   6.3,   7.2,   8.3,   0.0,  0.00, 
 03/12/02, 22:00,   0.0,  92,   6.2,   7.2,   8.2,   0.0,  0.00, 
 03/12/02, 23:00,  -0.2,  90,   6.0,   7.1,   8.1,   0.0,  0.00, 
 03/12/03, 00:00,  -0.1,  91,   5.8,   7.1,   8.1,   0.0,  0.00, 
 03/12/03, 01:00,  -0.1,  90,   5.7,   7.1,   8.1,   0.0,  0.00, 
 03/12/03, 02:00,  -0.4,  95,   5.7,   7.1,   8.1,   0.0,  0.00, 
 03/12/03, 03:00,  -0.3,  91,   5.5,   6.9,   8.1,   0.0,  0.00, 
 03/12/03, 04:00,  -0.9,  98,   5.5,   6.9,   8.1,   0.0,  0.00, 
 03/12/03, 05:00,  -0.7,  96,   5.4,   6.8,   8.1,   0.0,  0.00, 
 03/12/03, 06:00,  -0.9,  99,   5.3,   6.8,   8.1,   0.0,  0.00, 
 03/12/03, 07:00,  -0.8,  97,   5.3,   6.8,   8.1,   0.0,  0.00, 
 03/12/03, 08:00,  -0.8,  87,   5.2,   6.8,   8.1,   0.0,  0.13, 
 03/12/03, 09:00,   0.7,  88,   5.2,   6.7,   8.1,   0.0,  1.01, 
 03/12/03, 10:00,   2.5,  82,   5.2,   6.6,   8.1,   0.0,  1.11, 
 03/12/03, 11:00,   2.5,  78,   5.3,   6.6,   8.1,   0.0,  1.86, 
 03/12/03, 12:00,   4.0,  59,   5.5,   6.6,   8.1,   0.0,  2.02, 
 03/12/03, 13:00,   4.9,  58,   5.6,   6.5,   8.1,   0.0,  2.02, 
 03/12/03, 14:00,   5.2,  56,   5.8,   6.5,   8.1,   0.0,  1.57, 
 03/12/03, 15:00,   4.9,  57,   6.1,   6.5,   8.1,   0.0,  0.95, 
 03/12/03, 16:00,   3.4,  67,   6.2,   6.6,   8.1,   0.0,  0.18, 
 03/12/03, 17:00,   3.5,  65,   6.1,   6.5,   8.0,   0.0,  0.03, 
 03/12/03, 18:00,   2.5,  69,   5.9,   6.6,   8.0,   0.0,  0.00, 
 03/12/03, 19:00,   1.7,  77,   5.8,   6.6,   8.0,   0.0,  0.00, 
 03/12/03, 20:00,   1.5,  70,   5.6,   6.6,   8.0,   0.0,  0.00, 
 03/12/03, 21:00,   0.4,  82,   5.5,   6.6,   8.0,   0.0,  0.00, 
 03/12/03, 22:00,   0.2,  82,   5.2,   6.5,   8.0,   0.0,  0.00, 
 03/12/03, 23:00,  -0.9,  89,   5.2,   6.5,   8.0,   0.0,  0.00, 
 03/12/04, 00:00,  -0.8,  77,   5.0,   6.4,   7.8,   0.0,  0.00, 
 03/12/04, 01:00,  -0.6,  71,   4.9,   6.4,   7.9,   0.5,  0.00, 
 03/12/04, 02:00,  -0.4,  66,   4.8,   6.3,   7.9,   0.0,  0.00, 
 03/12/04, 03:00,  -0.5,  71,   4.7,   6.3,   7.8,   0.0,  0.00, 
 03/12/04, 04:00,  -1.0,  82,   4.6,   6.2,   7.9,   0.0,  0.00, 
 03/12/04, 05:00,  -1.0,  92,   4.5,   6.1,   7.8,   0.0,  0.00, 
 03/12/04, 06:00,  -0.6,  87,   4.3,   6.1,   7.8,   0.0,  0.00, 
 03/12/04, 07:00,  -1.1,  90,   4.3,   6.0,   7.8,   0.0,  0.00, 
 03/12/04, 08:00,  -0.9,  93,   4.3,   6.0,   7.7,   0.0,  0.09, 
 03/12/04, 09:00,   0.9,  74,   4.2,   5.9,   7.7,   0.0,  0.53, 
 03/12/04, 10:00,   1.6,  69,   4.3,   5.9,   7.7,   0.0,  1.08, 
 03/12/04, 11:00,   1.1,  87,   4.3,   5.8,   7.7,   0.0,  0.94, 
 03/12/04, 12:00,   1.0,  87,   4.6,   5.8,   7.7,   0.0,  0.67, 
 03/12/04, 13:00,   1.5,  83,   4.7,   5.7,   7.8,   0.0,  1.07, 
 03/12/04, 14:00,   1.1,  88,   5.0,   5.7,   7.7,   0.0,  1.01, 
 03/12/04, 15:00,   0.3,  90,   5.1,   5.7,   7.6,   0.0,  0.41, 
 03/12/04, 16:00,  -0.1,  90,   5.2,   5.8,   7.6,   0.0,  0.28, 
 03/12/04, 17:00,  -1.6,  99,   5.2,   5.8,   7.6,   0.0,  0.03, 
 03/12/04, 18:00,  -1.5,  99,   5.1,   5.8,   7.6,   0.0,  0.00, 
 03/12/04, 19:00,  -2.1,  95,   5.0,   5.8,   7.7,   0.0,  0.00, 
 03/12/04, 20:00,  -2.7,  97,   4.9,   5.8,   7.6,   0.0,  0.00, 
 03/12/04, 21:00,  -3.6,  99,   4.6,   5.8,   7.5,   0.0,  0.00, 
 03/12/04, 22:00,  -3.5,  93,   4.5,   5.8,   7.5,   0.0,  0.00, 
 03/12/04, 23:00,  -3.9,  91,   4.3,   5.8,   7.5,   0.0,  0.00, 
 03/12/05, 00:00,  -2.1,  66,   4.1,   5.8,   7.5,   0.0,  0.00, 
 03/12/05, 01:00,  -3.7,  87,   3.9,   5.7,   7.5,   0.0,  0.00, 
 03/12/05, 02:00,  -4.6,  94,   3.9,   5.7,   7.5,   0.0,  0.00, 
 03/12/05, 03:00,  -4.2,  87,   3.7,   5.6,   7.4,   0.0,  0.00, 
 03/12/05, 04:00,  -4.8,  88,   3.6,   5.5,   7.4,   0.0,  0.00, 
 03/12/05, 05:00,  -2.3,  60,   3.4,   5.4,   7.4,   0.0,  0.00, 
 03/12/05, 06:00,  -0.4,  60,   3.2,   5.4,   7.4,   0.0,  0.00, 
 03/12/05, 07:00,  -0.4,  66,   3.1,   5.3,   7.4,   0.0,  0.00, 
 03/12/05, 08:00,   1.7,  74,   3.0,   5.2,   7.4,   0.0,  0.26, 
 03/12/05, 09:00,   3.4,  69,   2.8,   5.1,   7.4,   0.0,  0.83, 
 03/12/05, 10:00,   4.0,  66,   2.7,   5.1,   7.3,   0.0,  0.94, 
 03/12/05, 11:00,   5.3,  58,   2.8,   5.0,   7.3,   0.0,  1.47, 
 03/12/05, 12:00,   5.4,  64,   3.0,   4.9,   7.3,   0.0,  1.68, 
 03/12/05, 13:00,   6.4,  59,   3.3,   4.9,   7.3,   0.0,  1.88, 
 03/12/05, 14:00,   5.7,  68,   3.7,   4.8,   7.3,   0.0,  1.03, 
 03/12/05, 15:00,   5.9,  69,   4.0,   4.8,   7.2,   0.0,  0.53, 
 03/12/05, 16:00,   5.0,  71,   4.2,   4.8,   7.3,   0.0,  0.33, 
 03/12/05, 17:00,   3.8,  79,   4.3,   4.9,   7.2,   0.0,  0.05, 
 03/12/05, 18:00,   3.1,  80,   4.3,   4.9,   7.2,   0.0,  0.00, 
 03/12/05, 19:00,   3.1,  81,   4.2,   5.0,   7.2,   0.0,  0.00, 
 03/12/05, 20:00,   1.8,  86,   4.1,   5.0,   7.2,   0.0,  0.00, 
 03/12/05, 21:00,   1.2,  86,   4.0,   5.0,   7.2,   0.0,  0.00, 
 03/12/05, 22:00,   1.0,  70,   3.9,   5.0,   7.2,   0.0,  0.00, 
 03/12/05, 23:00,   1.8,  72,   3.8,   5.0,   7.2,   0.0,  0.00, 
 03/12/06, 00:00,   3.4,  62,   3.7,   5.0,   7.1,   0.0,  0.00, 
 03/12/06, 01:00,   3.8,  71,   3.6,   5.0,   7.1,   0.0,  0.00, 
 03/12/06, 02:00,   4.5,  69,   3.6,   5.0,   7.1,   0.0,  0.00, 
 03/12/06, 03:00,   4.8,  64,   3.5,   4.9,   7.0,   0.0,  0.00, 
 03/12/06, 04:00,   5.0,  62,   3.6,   4.9,   7.0,   0.0,  0.00, 
 03/12/06, 05:00,   3.9,  74,   3.7,   4.9,   7.1,   0.0,  0.00, 
 03/12/06, 06:00,   3.0,  90,   3.7,   4.9,   7.1,   0.0,  0.00, 
 03/12/06, 07:00,   3.4,  94,   3.6,   4.9,   6.9,   0.0,  0.00, 
 03/12/06, 08:00,   5.5,  80,   3.8,   4.9,   6.9,   0.0,  0.01, 
 03/12/06, 09:00,   5.2,  89,   3.8,   4.9,   6.9,   0.0,  0.05, 
 03/12/06, 10:00,   5.0,  97,   3.9,   4.9,   7.0,   0.5,  0.10, 
 03/12/06, 11:00,   4.2,  99,   3.9,   4.9,   7.0,   0.0,  0.12, 
 03/12/06, 12:00,   4.5,  99,   4.0,   4.9,   7.0,   0.5,  0.10, 
 03/12/06, 13:00,   5.1,  99,   4.1,   4.9,   6.9,   0.5,  0.12, 
 03/12/06, 14:00,   3.5,  99,   4.2,   4.9,   6.9,   2.0,  0.07, 
 03/12/06, 15:00,   5.8,  99,   4.3,   4.9,   6.8,   1.5,  0.02, 
 03/12/06, 16:00,   5.8,  99,   4.4,   4.9,   6.9,   1.0,  0.00, 
 03/12/06, 17:00,   6.5,  99,   4.4,   5.0,   6.9,   0.0,  0.00, 
 03/12/06, 18:00,   6.7,  99,   4.5,   5.0,   6.9,   1.0,  0.00, 
 03/12/06, 19:00,   6.1,  99,   4.7,   5.0,   6.9,   0.5,  0.00, 
 03/12/06, 20:00,   6.0,  99,   4.7,   5.0,   6.8,   6.0,  0.00, 
 03/12/06, 21:00,   4.9,  99,   4.8,   5.1,   6.8,   2.5,  0.00, 
 03/12/06, 22:00,   4.1,  99,   4.8,   5.1,   6.8,   0.0,  0.00, 
 03/12/06, 23:00,   3.8,  99,   5.0,   5.1,   6.8,   0.5,  0.00, 
 03/12/07, 00:00,   3.5,  99,   4.8,   5.2,   6.7,   0.5,  0.00, 
 03/12/07, 01:00,   3.0,  99,   4.8,   5.2,   6.8,   0.5,  0.00, 
 03/12/07, 02:00,   2.4,  99,   4.8,   5.2,   6.6,   0.5,  0.00, 
 03/12/07, 03:00,   1.8,  99,   4.7,   5.2,   6.6,   0.0,  0.00, 
 03/12/07, 04:00,   1.1,  97,   4.7,   5.2,   6.6,   0.0,  0.00, 
 03/12/07, 05:00,   0.6,  94,   4.6,   5.3,   6.6,   0.0,  0.00, 
 03/12/07, 06:00,  -0.1,  81,   4.5,   5.3,   6.6,   0.0,  0.00, 
 03/12/07, 07:00,  -0.4,  90,   4.4,   5.3,   6.6,   0.0,  0.00, 
 03/12/07, 08:00,  -0.7,  86,   4.3,   5.3,   6.7,   0.0,  0.00, 
 03/12/07, 09:00,  -0.4,  73,   4.2,   5.2,   6.6,   0.5,  0.33, 
 03/12/07, 10:00,  -0.8,  89,   4.1,   5.2,   6.6,   0.0,  0.43, 
 03/12/07, 11:00,  -0.6,  90,   4.1,   5.2,   6.6,   0.0,  0.70, 
 03/12/07, 12:00,  -0.5,  90,   4.1,   5.2,   6.6,   0.0,  0.56, 
 03/12/07, 13:00,  -0.9,  87,   4.2,   5.1,   6.6,   0.0,  0.51, 
 03/12/07, 14:00,  -0.9,  93,   4.2,   5.1,   6.6,   0.0,  0.42, 
 03/12/07, 15:00,  -1.1,  79,   4.3,   5.1,   6.6,   0.0,  0.54, 
 03/12/07, 16:00,  -2.1,  85,   4.3,   5.1,   6.6,   0.0,  0.28, 
 03/12/07, 17:00,  -2.6,  78,   4.2,   5.1,   6.6,   0.0,  0.03, 
 03/12/07, 18:00,  -2.9,  79,   4.1,   5.1,   6.6,   0.0,  0.00, 
 03/12/07, 19:00,  -3.3,  80,   3.9,   5.1,   6.6,   0.0,  0.00, 
 03/12/07, 20:00,  -3.2,  83,   3.8,   5.1,   6.6,   0.0,  0.00, 
 03/12/07, 21:00,  -3.5,  83,   3.7,   5.1,   6.6,   0.0,  0.00, 
 03/12/07, 22:00,  -3.7,  81,   3.5,   5.0,   6.6,   0.0,  0.00, 
 03/12/07, 23:00,  -3.6,  77,   3.4,   5.0,   6.6,   0.0,  0.00, 
 03/12/08, 00:00,  -3.6,  74,   3.3,   4.9,   6.6,   0.0,  0.00, 
 03/12/08, 01:00,  -3.6,  75,   3.2,   4.9,   6.6,   0.0,  0.00, 
 03/12/08, 02:00,  -3.5,  75,   3.1,   4.8,   6.6,   0.0,  0.00, 
 03/12/08, 03:00,  -3.5,  74,   3.0,   4.8,   6.5,   0.0,  0.00, 
 03/12/08, 04:00,  -3.3,  70,   2.9,   4.7,   6.5,   0.0,  0.00, 
 03/12/08, 05:00,  -3.4,  76,   2.8,   4.6,   6.5,   0.0,  0.00, 
 03/12/08, 06:00,  -3.5,  76,   2.7,   4.6,   6.5,   0.0,  0.00, 
 03/12/08, 07:00,  -3.5,  71,   2.6,   4.5,   6.5,   0.0,  0.00, 
 03/12/08, 08:00,  -2.6,  68,   2.6,   4.5,   6.5,   0.0,  0.08, 
 03/12/08, 09:00,  -3.0,  79,   2.5,   4.4,   6.5,   0.0,  0.30, 
 03/12/08, 10:00,  -3.2,  87,   2.4,   4.4,   6.5,   0.0,  0.16, 
 03/12/08, 11:00,  -2.6,  88,   2.4,   4.3,   6.5,   0.0,  0.33, 
 03/12/08, 12:00,  -2.3,  91,   2.4,   4.3,   6.4,   0.0,  0.30, 
 03/12/08, 13:00,  -1.4,  86,   2.3,   4.2,   6.4,   0.0,  0.66, 
 03/12/08, 14:00,  -1.5,  89,   2.4,   4.2,   6.4,   0.5,  0.25, 
 03/12/08, 15:00,  -1.9,  92,   2.4,   4.1,   6.4,   0.0,  0.16, 
 03/12/08, 16:00,  -2.1,  94,   2.5,   4.1,   6.4,   0.0,  0.07, 
 03/12/08, 17:00,  -2.6,  98,   2.5,   4.1,   6.4,   0.5,  0.00, 
 03/12/08, 18:00,  -2.9,  94,   2.5,   4.0,   6.3,   0.5,  0.00, 
 03/12/08, 19:00,  -3.0,  90,   2.5,   4.0,   6.3,   0.0,  0.00, 
 03/12/08, 20:00,  -3.2,  97,   2.5,   4.0,   6.3,   0.0,  0.00, 
 03/12/08, 21:00,  -3.2,  96,   2.5,   4.0,   6.3,   0.0,  0.00, 
 03/12/08, 22:00,  -3.3,  96,   2.5,   4.0,   6.3,   0.0,  0.00, 
 03/12/08, 23:00,  -3.4,  96,   2.5,   4.0,   6.2,   0.5,  0.00, 
 03/12/09, 00:00,  -3.8,  96,   2.5,   4.0,   6.2,   0.0,  0.00, 
 03/12/09, 01:00,  -3.5,  96,   2.5,   4.0,   6.2,   0.0,  0.00, 
 03/12/09, 02:00,  -3.2,  96,   2.5,   4.0,   6.2,   0.5,  0.00, 
 03/12/09, 03:00,  -3.2,  97,   2.5,   4.0,   6.2,   0.5,  0.00, 
 03/12/09, 04:00,  -3.1,  94,   2.5,   3.9,   6.2,   0.5,  0.00, 
 03/12/09, 05:00,  -3.0,  93,   2.5,   3.9,   6.2,   0.5,  0.00, 
 03/12/09, 06:00,  -3.0,  95,   2.5,   3.9,   6.2,   0.0,  0.00, 
 03/12/09, 07:00,  -3.1,  94,   2.5,   3.9,   6.2,   1.0,  0.00, 
 03/12/09, 08:00,  -3.1,  95,   2.5,   3.9,   6.2,   0.0,  0.02, 
 03/12/09, 09:00,  -3.0,  91,   2.5,   3.9,   6.2,   0.5,  0.16, 
 03/12/09, 10:00,  -3.0,  90,   2.5,   3.9,   6.2,   0.5,  0.38, 
 03/12/09, 11:00,  -2.4,  87,   2.5,   3.9,   6.1,   0.0,  0.94, 
 03/12/09, 12:00,  -2.8,  92,   2.5,   3.9,   6.1,   0.5,  0.78, 
 03/12/09, 13:00,  -2.1,  86,   2.5,   3.8,   6.1,   0.0,  1.29, 
 03/12/09, 14:00,  -2.4,  90,   2.5,   3.8,   6.1,   0.0,  1.16, 
 03/12/09, 15:00,  -3.2,  86,   2.7,   3.8,   6.1,   0.0,  0.73, 
 03/12/09, 16:00,  -3.3,  83,   2.6,   3.8,   6.1,   0.0,  0.34, 
 03/12/09, 17:00,  -4.2,  91,   2.6,   3.8,   6.1,   0.0,  0.07, 
 03/12/09, 18:00,  -4.8,  93,   2.6,   3.8,   6.0,   0.0,  0.00, 
 03/12/09, 19:00,  -5.1,  93,   2.6,   3.8,   6.0,   0.0,  0.00, 
 03/12/09, 20:00,  -5.2,  95,   2.6,   3.8,   6.0,   0.0,  0.00, 
 03/12/09, 21:00,  -5.5,  93,   2.6,   3.8,   6.0,   0.0,  0.00, 
 03/12/09, 22:00,  -5.6,  93,   2.6,   3.8,   6.0,   0.5,  0.00, 
 03/12/09, 23:00,  -5.7,  95,   2.7,   3.8,   6.0,   0.0,  0.00, 
 03/12/10, 00:00,  -5.8,  93,   2.6,   3.8,   6.0,   0.0,  0.00, 
 03/12/10, 01:00,  -5.9,  88,   2.6,   3.8,   5.9,   0.0,  0.00, 
 03/12/10, 02:00,  -5.9,  88,   2.6,   3.8,   5.9,   0.0,  0.00, 
 03/12/10, 03:00,  -7.0,  89,   2.6,   3.8,   5.9,   0.0,  0.00, 
 03/12/10, 04:00,  -7.1,  90,   2.6,   3.8,   5.9,   0.0,  0.00, 
 03/12/10, 05:00,  -6.0,  80,   2.6,   3.8,   5.9,   0.0,  0.00, 
 03/12/10, 06:00,  -6.2,  86,   2.6,   3.8,   5.9,   0.0,  0.00, 
 03/12/10, 07:00,  -6.4,  81,   2.6,   3.8,   5.9,   0.0,  0.00, 
 03/12/10, 08:00,  -6.8,  86,   2.6,   3.8,   5.9,   0.0,  0.10, 
 03/12/10, 09:00,  -4.8,  81,   2.6,   3.8,   5.9,   0.0,  0.90, 
 03/12/10, 10:00,  -4.4,  82,   2.7,   3.8,   5.9,   0.0,  1.44, 
 03/12/10, 11:00,  -4.3,  83,   2.8,   3.8,   5.8,   0.0,  0.75, 
 03/12/10, 12:00,  -3.2,  76,   2.8,   3.8,   5.8,   0.0,  1.61, 
 03/12/10, 13:00,  -2.8,  79,   2.8,   3.8,   5.8,   0.0,  1.11, 
 03/12/10, 14:00,  -3.1,  81,   2.8,   3.8,   5.8,   0.0,  0.87, 
 03/12/10, 15:00,  -3.1,  83,   2.8,   3.7,   5.8,   0.0,  0.78, 
 03/12/10, 16:00,  -3.5,  85,   2.8,   3.7,   5.8,   0.0,  0.30, 
 03/12/10, 17:00,  -3.9,  87,   2.8,   3.7,   5.8,   0.0,  0.02, 
 03/12/10, 18:00,  -4.1,  88,   2.8,   3.7,   5.8,   0.0,  0.00, 
 03/12/10, 19:00,  -4.9,  91,   2.8,   3.7,   5.8,   0.0,  0.00, 
 03/12/10, 20:00,  -5.8,  94,   2.8,   3.7,   5.8,   0.0,  0.00, 
 03/12/10, 21:00,  -5.9,  91,   2.7,   3.7,   5.7,   0.0,  0.00, 
 03/12/10, 22:00,  -5.9,  92,   2.7,   3.7,   5.7,   0.0,  0.00, 
 03/12/10, 23:00,  -5.8,  90,   2.7,   3.7,   5.7,   0.0,  0.00, 
 03/12/11, 00:00,  -4.9,  85,   2.6,   3.7,   5.7,   0.0,  0.00, 
 03/12/11, 01:00,  -5.3,  87,   2.5,   3.7,   5.7,   0.0,  0.00, 
 03/12/11, 02:00,  -4.6,  82,   2.5,   3.7,   5.7,   0.0,  0.00, 
 03/12/11, 03:00,  -3.6,  79,   2.5,   3.7,   5.7,   0.0,  0.00, 
 03/12/11, 04:00,  -3.1,  73,   2.4,   3.7,   5.7,   0.0,  0.00, 
 03/12/11, 05:00,  -2.1,  70,   2.4,   3.7,   5.7,   0.0,  0.00, 
 03/12/11, 06:00,  -0.9,  78,   2.4,   3.6,   5.7,   0.0,  0.00, 
 03/12/11, 07:00,  -0.2,  74,   2.4,   3.6,   5.7,   0.0,  0.00, 
 03/12/11, 08:00,  -0.5,  76,   2.4,   3.6,   5.7,   0.0,  0.06, 
 03/12/11, 09:00,   1.3,  64,   2.4,   3.6,   5.6,   0.0,  0.27, 
 03/12/11, 10:00,   2.0,  68,   2.4,   3.6,   5.6,   0.0,  0.43, 
 03/12/11, 11:00,   2.8,  72,   2.4,   3.6,   5.6,   0.0,  0.72, 
 03/12/11, 12:00,   1.9,  81,   2.5,   3.6,   5.6,   0.0,  0.45, 
 03/12/11, 13:00,   1.7,  84,   2.4,   3.6,   5.6,   0.0,  0.24, 
 03/12/11, 14:00,   1.5,  90,   2.4,   3.5,   5.6,   0.0,  0.24, 
 03/12/11, 15:00,   1.7,  88,   2.4,   3.5,   5.6,   0.0,  0.25, 
 03/12/11, 16:00,   0.6,  98,   2.6,   3.5,   5.6,   0.0,  0.06, 
 03/12/11, 17:00,   0.4,  99,   2.6,   3.5,   5.6,   0.5,  0.00, 
 03/12/11, 18:00,   0.3,  99,   2.6,   3.5,   5.6,   0.0,  0.00, 
 03/12/11, 19:00,   0.6,  99,   2.6,   3.5,   5.6,   0.5,  0.00, 
 03/12/11, 20:00,   1.1,  99,   2.6,   3.5,   5.5,   1.0,  0.00, 
 03/12/11, 21:00,   0.6,  99,   2.6,   3.5,   5.5,   1.0,  0.00, 
 03/12/11, 22:00,   0.7,  99,   2.5,   3.5,   5.5,   2.0,  0.00, 
 03/12/11, 23:00,   0.4,  99,   2.6,   3.5,   5.5,   2.0,  0.00, 
 03/12/12, 00:00,   1.0,  99,   2.5,   3.5,   5.5,   2.5,  0.00, 
 03/12/12, 01:00,   0.7,  99,   2.4,   3.5,   5.5,   0.5,  0.00, 
 03/12/12, 02:00,   1.9,  99,   2.5,   3.5,   5.5,   1.0,  0.00, 
 03/12/12, 03:00,   2.3,  99,   2.4,   3.5,   5.5,   1.5,  0.00, 
 03/12/12, 04:00,   1.7,  99,   2.5,   3.5,   5.5,   1.5,  0.00, 
 03/12/12, 05:00,   1.5,  99,   2.4,   3.5,   5.4,   0.0,  0.00, 
 03/12/12, 06:00,   1.0,  99,   2.5,   3.5,   5.4,   0.0,  0.00, 
 03/12/12, 07:00,   1.3,  99,   2.4,   3.5,   5.4,   0.0,  0.00, 
 03/12/12, 08:00,   0.2,  99,   2.4,   3.5,   5.4,   0.5,  0.02, 
 03/12/12, 09:00,   0.0,  96,   2.5,   3.4,   5.4,   0.0,  0.26, 
 03/12/12, 10:00,   0.3,  99,   2.4,   3.4,   5.3,   0.0,  0.29, 
 03/12/12, 11:00,   0.4,  99,   2.6,   3.4,   5.3,   0.5,  0.31, 
 03/12/12, 12:00,   0.4,  99,   2.6,   3.4,   5.3,   0.0,  0.39, 
 03/12/12, 13:00,   0.3,  99,   2.7,   3.4,   5.3,   1.5,  0.33, 
 03/12/12, 14:00,  -0.2,  99,   2.7,   3.4,   5.3,   0.5,  0.17, 
 03/12/12, 15:00,  -0.3,  99,   2.7,   3.4,   5.3,   2.0,  0.09, 
 03/12/12, 16:00,  -0.3,  99,   2.7,   3.4,   5.3,   0.0,  0.04, 
 03/12/12, 17:00,  -1.3,  99,   2.6,   3.4,   5.3,   1.0,  0.00, 
 03/12/12, 18:00,  -1.5,  92,   2.6,   3.4,   5.2,   0.5,  0.00, 
 03/12/12, 19:00,  -1.8,  96,   2.5,   3.4,   5.2,   0.0,  0.00, 
 03/12/12, 20:00,  -2.1,  96,   2.5,   3.4,   5.2,   0.0,  0.00, 
 03/12/12, 21:00,  -2.5,  91,   2.5,   3.4,   5.2,   0.5,  0.00, 
 03/12/12, 22:00,  -2.7,  97,   2.5,   3.4,   5.2,   0.0,  0.00, 
 03/12/12, 23:00,  -2.9,  93,   2.5,   3.3,   5.2,   0.0,  0.00, 
 03/12/13, 00:00,  -3.0,  92,   2.4,   3.4,   5.2,   0.0,  0.00, 
 03/12/13, 01:00,  -3.5,  91,   2.4,   3.4,   5.2,   0.5,  0.00, 
 03/12/13, 02:00,  -3.2,  89,   2.4,   3.4,   5.2,   0.0,  0.00, 
 03/12/13, 03:00,  -3.2,  90,   2.4,   3.3,   5.2,   0.0,  0.00, 
 03/12/13, 04:00,  -3.3,  91,   2.4,   3.3,   5.2,   0.0,  0.00, 
 03/12/13, 05:00,  -3.5,  90,   2.4,   3.3,   5.2,   0.0,  0.00, 
 03/12/13, 06:00,  -3.5,  90,   2.4,   3.3,   5.2,   0.0,  0.00, 
 03/12/13, 07:00,  -3.6,  97,   2.4,   3.3,   5.2,   0.0,  0.00, 
 03/12/13, 08:00,  -3.4,  98,   2.4,   3.4,   5.1,   0.5,  0.00, 
 03/12/13, 09:00,  -2.9,  99,   2.4,   3.4,   5.1,   0.0,  0.18, 
 03/12/13, 10:00,  -2.6,  97,   2.4,   3.3,   5.1,   0.5,  0.35, 
 03/12/13, 11:00,  -1.7,  95,   2.4,   3.4,   5.1,   0.0,  0.73, 
 03/12/13, 12:00,  -1.3,  96,   2.4,   3.4,   5.1,   0.0,  1.29, 
 03/12/13, 13:00,  -1.6,  96,   2.4,   3.2,   5.1,   0.0,  1.14, 
 03/12/13, 14:00,  -1.9,  89,   2.4,   3.3,   5.1,   0.0,  0.78, 
 03/12/13, 15:00,  -2.9,  96,   2.4,   3.2,   5.1,   1.0,  0.56, 
 03/12/13, 16:00,  -2.7,  83,   2.4,   3.3,   5.1,   0.5,  0.31, 
 03/12/13, 17:00,  -3.8,  84,   2.4,   3.3,   5.1,   0.0,  0.03, 
 03/12/13, 18:00,  -3.9,  86,   2.4,   3.3,   5.1,   0.0,  0.00, 
 03/12/13, 19:00,  -3.6,  84,   2.4,   3.3,   5.1,   0.0,  0.00, 
 03/12/13, 20:00,  -3.7,  86,   2.4,   3.2,   5.1,   0.0,  0.00, 
 03/12/13, 21:00,  -3.6,  87,   2.4,   3.2,   5.1,   0.0,  0.00, 
 03/12/13, 22:00,  -3.5,  86,   2.4,   3.3,   5.1,   0.0,  0.00, 
 03/12/13, 23:00,  -4.0,  91,   2.4,   3.2,   5.1,   0.0,  0.00, 
 03/12/14, 00:00,  -3.3,  77,   2.4,   3.2,   5.1,   0.0,  0.00, 
 03/12/14, 01:00,  -3.1,  79,   2.3,   3.2,   5.1,   0.0,  0.00, 
 03/12/14, 02:00,  -3.1,  79,   2.3,   3.2,   5.1,   0.0,  0.00, 
 03/12/14, 03:00,  -3.9,  89,   2.3,   3.2,   5.1,   0.0,  0.00, 
 03/12/14, 04:00,  -3.2,  82,   2.3,   3.2,   5.1,   0.0,  0.00, 
 03/12/14, 05:00,  -3.0,  80,   2.3,   3.2,   4.9,   0.0,  0.00, 
 03/12/14, 06:00,  -3.1,  81,   2.3,   3.2,   4.9,   0.0,  0.00, 
 03/12/14, 07:00,  -2.7,  82,   2.3,   3.2,   4.9,   0.0,  0.00, 
 03/12/14, 08:00,  -2.5,  87,   2.3,   3.2,   4.9,   0.0,  0.06, 
 03/12/14, 09:00,  -1.8,  85,   2.2,   3.2,   4.9,   0.0,  0.35, 
 03/12/14, 10:00,  -1.1,  88,   2.2,   3.2,   5.0,   0.0,  1.15, 
 03/12/14, 11:00,  -1.9,  92,   2.3,   3.3,   5.0,   0.0,  0.52, 
 03/12/14, 12:00,  -0.7,  79,   2.3,   3.1,   5.0,   0.0,  1.45, 
 03/12/14, 13:00,  -0.8,  76,   2.3,   3.1,   5.0,   0.0,  0.75, 
 03/12/14, 14:00,  -0.3,  69,   2.3,   3.1,   5.0,   0.0,  1.02, 
 03/12/14, 15:00,  -0.7,  75,   2.3,   3.1,   5.0,   0.0,  0.56, 
 03/12/14, 16:00,  -1.2,  78,   2.3,   3.1,   4.9,   0.0,  0.36, 
 03/12/14, 17:00,  -1.8,  70,   2.3,   3.1,   5.0,   0.0,  0.02, 
 03/12/14, 18:00,  -3.0,  79,   2.3,   3.1,   5.0,   0.0,  0.00, 
 03/12/14, 19:00,  -3.9,  81,   2.3,   3.1,   5.0,   0.0,  0.00, 
 03/12/14, 20:00,  -3.4,  76,   2.3,   3.1,   5.0,   0.0,  0.00, 
 03/12/14, 21:00,  -2.7,  68,   2.3,   3.1,   4.9,   0.0,  0.00, 
 03/12/14, 22:00,  -2.7,  55,   2.3,   3.1,   4.9,   0.0,  0.00, 
 03/12/14, 23:00,  -3.9,  60,   2.2,   3.1,   4.9,   0.0,  0.00, 
 03/12/15, 00:00,  -5.2,  69,   2.2,   3.1,   4.9,   0.0,  0.00, 
 03/12/15, 01:00,  -6.0,  84,   2.0,   3.1,   4.8,   0.0,  0.00, 
 03/12/15, 02:00,  -5.6,  83,   2.1,   3.1,   4.9,   0.0,  0.00, 
 03/12/15, 03:00,  -4.7,  74,   2.0,   3.1,   4.8,   0.0,  0.00, 
 03/12/15, 04:00,  -4.5,  73,   2.0,   3.1,   4.8,   0.0,  0.00, 
 03/12/15, 05:00,  -3.4,  73,   2.0,   3.1,   4.8,   0.0,  0.00, 
 03/12/15, 06:00,  -2.9,  67,   1.9,   3.0,   4.8,   0.0,  0.00, 
 03/12/15, 07:00,  -2.4,  60,   1.9,   3.0,   4.8,   0.0,  0.00, 
 03/12/15, 08:00,  -2.2,  61,   1.8,   3.0,   4.8,   0.0,  0.12, 
 03/12/15, 09:00,   0.5,  61,   1.8,   3.0,   4.8,   0.0,  0.91, 
 03/12/15, 10:00,   1.4,  52,   1.8,   3.0,   4.9,   0.0,  1.50, 
 03/12/15, 11:00,   1.9,  57,   1.7,   3.0,   4.9,   0.0,  1.88, 
 03/12/15, 12:00,   1.4,  60,   1.7,   3.0,   4.9,   0.0,  2.03, 
 03/12/15, 13:00,   2.3,  51,   1.7,   3.0,   4.9,   0.0,  1.99, 
 03/12/15, 14:00,   1.9,  56,   1.8,   3.0,   4.9,   0.0,  1.49, 
 03/12/15, 15:00,   0.8,  59,   1.7,   3.0,   4.9,   0.0,  0.73, 
 03/12/15, 16:00,   0.0,  62,   1.7,   2.9,   4.9,   0.0,  0.31, 
 03/12/15, 17:00,  -1.0,  69,   1.7,   2.8,   4.9,   0.0,  0.04, 
 03/12/15, 18:00,  -1.3,  79,   1.8,   2.8,   4.9,   0.0,  0.00, 
 03/12/15, 19:00,  -1.5,  81,   1.8,   2.8,   4.9,   0.0,  0.00, 
 03/12/15, 20:00,  -2.8,  96,   1.8,   2.8,   4.8,   0.0,  0.00, 
 03/12/15, 21:00,  -2.4,  93,   1.8,   2.8,   4.8,   0.0,  0.00, 
 03/12/15, 22:00,  -2.7,  96,   1.8,   2.8,   4.7,   0.5,  0.00, 
 03/12/15, 23:00,  -3.5,  96,   1.8,   2.8,   4.7,   0.5,  0.00, 
 03/12/16, 00:00,  -4.2,  95,   1.8,   2.8,   4.7,   0.5,  0.00, 
 03/12/16, 01:00,  -4.2,  90,   1.8,   2.8,   4.7,   0.0,  0.00, 